Location: Unspecified
(0.0000°N, 0.0000°E)
Time: 05:50:21
(UTC+00:00)

Explorer 7 - Pass Details

Date: 05 October 2020
Orbit: 484 x 678 km, 50.3° (Epoch: 28 October)

Event Time Altitude Azimuth Distance (km) Brightness Sun altitude
Rises 06:29:58 0° 345° (NNW) 3,010 10.4 10.4°
Reaches altitude 10° 06:32:44 10° 358° (N) 2,089 9.7 11.1°
Maximum altitude 06:36:37 24° 52° (NE) 1,358 9.7 12.0°
Drops below altitude 10° 06:40:25 10° 106° (ESE) 2,037 12.0 13.0°
Sets 06:43:04 0° 120° (ESE) 2,918 11.8 13.6°
